STARLINK-1944, 46796

Orbit data source: Space-Track

STARLINK-1944, 46796 is a payload satellite owned by SpaceX/Seattle (US) in LEO that was launched on Sat, 24 Oct 2020 UTC via an FALCON 9 launch vehicle from the Air Force Eastern Test Range (AFETR). Payload-class satellites include a variety of spacecraft equipped with specific instruments for various scientific and technological missions. These include communications satellites like Starlink; space stations such as the ISS; scientific satellites like the Hubble; Earth observation satellites from companies like Planet Labs, Umbra, and HawkEye 360; GPS; miniature CubeSats for education and research; and military/defense satellites.

Loading next visibility...
Identifier
46796, 2020-074BK
Orbit
LEO
Country
Flag of USUS
Related business
Manufacturer
SpaceX/Seattle
Mission
Partially operational Commercial Communications
Bus & Motor
STARLINK, Unknown motor
Mass
260 kg wet, ~248 kg dry
Launch date (UTC)
2020-10-24 (5 years ago)
Launch vehicle
FALCON 9
Launch site
Air Force Eastern Test Range (AFETR)
Object type
Payload
Rocket body
Debris
Shape & HBR
Box + 1 Pan, 10.1 m
Radar Cross Section
13.562 m², Large (>1 m²)

Expand to show TLE details & history
Last TLE update: 12 hours ago

TLE from 12 hours ago
0 STARLINK-1944
1 46796U 20074BK  25312.83335647  .00139017  00000-0  35642-2 0  9990
2 46796  53.0555 131.5635 0000205 138.4332 237.1239 15.38374726  5785
Epoch: 2025-11-08T20:00Z
TLE epoch observation values (Epoch: 2025-11-08T20:00:01.999Z)
Latitude
12.3731°
Longitude
152.74054°
Altitude
451.118 km
Speed
7.644 km/s
True Right ascension
09h 24m 01s
True Declination
12° 17' 53"
Sunlit
Object was in daylight at epoch
Visualization orbit readout
Latitude
Unknown
Longitude
Unknown
Altitude
Unknown
Speed
Unknown
Apparent Right ascension
Unknown
Apparent Declination
Unknown
Sunlit
N/A
Visualization observer readout
Local Sidereal Time
04:23:00
Azimuth
Unknown
Elevation
Unknown
Doppler factor
Unknown
Orbital elements
Apogee altitude
451.329 km
Perigee altitude
451.049 km
Semi-major axis
6,829.326 km
Eccentricity
0.00002
Inclination
53.0555°
RAAN
131.5635°
Arg. of periapsis
138.4332°
True anomaly
237.12193°
Mean anomaly
237.1239°
Eccentric anomaly
237.12291°
Mean motion
3.84571 °/min
Orbital period
93.61 mins
BSTAR
0.0035642
Loading maneuver chart data...
Computing Atmospheric mass density...

Documentation

Showing up to 5 results
|